DAL1177 KSAN-KSLC

Flight info

Callsign DAL1177
Flight time 1h 23m
Altitude 37000
Route ZZOOO4 MTBAL CADEZ/N0440F380 HAKMN/N0436F370 Q73 LAKRR MLF QWENN6
Aircraft B738/M-SDE2E3FGHIRWXY/LB1

Departure

Time 2026-04-23 17:12
Airport San Diego International Airport (KSAN)

Arrival

Time 2026-04-23 18:35
Airport Salt Lake City International Airport (KSLC)
Time Latitude Longitude Altitude Speed Heading
2026-04-23 16:17 32.73456 -117.20343 22 ft 0 kts 232°
2026-04-23 16:52 32.73459 -117.20339 21 ft 2 kts 231°
2026-04-23 16:52 32.73471 -117.20322 22 ft 3 kts 218°
2026-04-23 16:52 32.73488 -117.20310 20 ft 3 kts 193°
2026-04-23 16:52 32.73504 -117.20309 22 ft 3 kts 143°
2026-04-23 16:53 32.73511 -117.20318 21 ft 1 kts 105°
2026-04-23 16:53 32.73512 -117.20322 21 ft 0 kts 105°
2026-04-23 16:58 32.73510 -117.20312 20 ft 2 kts 101°
2026-04-23 16:59 32.73507 -117.20284 14 ft 4 kts 92°
2026-04-23 16:59 32.73518 -117.20244 21 ft 6 kts 52°
2026-04-23 16:59 32.73545 -117.20199 22 ft 8 kts 71°
2026-04-23 16:59 32.73536 -117.20128 22 ft 11 kts 105°
2026-04-23 17:00 32.73514 -117.20031 23 ft 13 kts 105°
2026-04-23 17:00 32.73489 -117.19930 22 ft 13 kts 106°
2026-04-23 17:00 32.73475 -117.19874 24 ft 0 kts 107°
2026-04-23 17:02 32.73475 -117.19873 24 ft 0 kts 107°
2026-04-23 17:02 32.73469 -117.19850 25 ft 5 kts 107°
2026-04-23 17:02 32.73453 -117.19787 23 ft 11 kts 106°
2026-04-23 17:02 32.73427 -117.19679 24 ft 16 kts 106°
2026-04-23 17:03 32.73393 -117.19535 23 ft 20 kts 106°
2026-04-23 17:03 32.73351 -117.19363 21 ft 24 kts 106°
2026-04-23 17:03 32.73303 -117.19164 20 ft 25 kts 106°
2026-04-23 17:03 32.73258 -117.18976 23 ft 23 kts 106°
2026-04-23 17:04 32.73214 -117.18797 24 ft 22 kts 106°
2026-04-23 17:04 32.73172 -117.18625 24 ft 22 kts 106°
2026-04-23 17:04 32.73132 -117.18455 19 ft 21 kts 106°
2026-04-23 17:04 32.73092 -117.18290 19 ft 20 kts 106°
2026-04-23 17:05 32.73053 -117.18131 17 ft 20 kts 106°
2026-04-23 17:05 32.73015 -117.17976 18 ft 19 kts 106°
2026-04-23 17:05 32.72982 -117.17843 16 ft 13 kts 106°
2026-04-23 17:05 32.72967 -117.17781 17 ft 3 kts 106°
2026-04-23 17:06 32.72966 -117.17779 16 ft 0 kts 106°
2026-04-23 17:07 32.72964 -117.17772 16 ft 2 kts 105°
2026-04-23 17:08 32.72959 -117.17748 14 ft 4 kts 105°
2026-04-23 17:08 32.72951 -117.17709 15 ft 5 kts 96°
2026-04-23 17:08 32.72955 -117.17670 16 ft 0 kts 76°
2026-04-23 17:10 32.72956 -117.17667 16 ft 1 kts 76°
2026-04-23 17:10 32.72959 -117.17652 19 ft 4 kts 76°
2026-04-23 17:10 32.72975 -117.17600 20 ft 10 kts 55°
2026-04-23 17:11 32.73035 -117.17641 19 ft 17 kts 285°
2026-04-23 17:11 32.73079 -117.17821 18 ft 30 kts 287°
2026-04-23 17:11 32.73170 -117.18192 20 ft 82 kts 285°
2026-04-23 17:11 32.73411 -117.19183 29 ft 163 kts 286°
2026-04-23 17:12 32.73733 -117.20606 667 ft 191 kts 284°
2026-04-23 17:12 32.74083 -117.22164 1773 ft 198 kts 286°
2026-04-23 17:12 32.74474 -117.23716 2886 ft 198 kts 288°
2026-04-23 17:12 32.74888 -117.25365 3313 ft 222 kts 288°
2026-04-23 17:13 32.75340 -117.27195 3798 ft 235 kts 288°
2026-04-23 17:13 32.75801 -117.29086 4434 ft 240 kts 288°
2026-04-23 17:13 32.76265 -117.30998 5123 ft 242 kts 288°
2026-04-23 17:13 32.76521 -117.32954 5757 ft 248 kts 266°
2026-04-23 17:14 32.75931 -117.34870 6480 ft 251 kts 237°
2026-04-23 17:14 32.74632 -117.36274 7138 ft 258 kts 210°
2026-04-23 17:14 32.72879 -117.36814 7833 ft 267 kts 182°
2026-04-23 17:14 32.71051 -117.36296 8634 ft 278 kts 154°
2026-04-23 17:15 32.69535 -117.34863 9594 ft 284 kts 131°
2026-04-23 17:15 32.68342 -117.32955 10408 ft 291 kts 127°
2026-04-23 17:15 32.67157 -117.30977 11208 ft 296 kts 128°
2026-04-23 17:15 32.65929 -117.28984 12081 ft 301 kts 129°
2026-04-23 17:16 32.64669 -117.26985 12894 ft 305 kts 129°
2026-04-23 17:16 32.63646 -117.24706 13314 ft 329 kts 104°
2026-04-23 17:16 32.63605 -117.21914 13520 ft 353 kts 75°
2026-04-23 17:16 32.64689 -117.19267 13832 ft 364 kts 46°
2026-04-23 17:17 32.66466 -117.17101 14452 ft 369 kts 40°
2026-04-23 17:17 32.68316 -117.14980 15193 ft 372 kts 39°
2026-04-23 17:17 32.69560 -117.13562 15670 ft 374 kts 39°
2026-04-23 17:17 32.72084 -117.10664 16618 ft 381 kts 40°
2026-04-23 17:18 32.75910 -117.06195 17988 ft 391 kts 40°
2026-04-23 17:18 32.77827 -117.03929 18648 ft 395 kts 40°
2026-04-23 17:18 32.79781 -117.01608 19257 ft 400 kts 40°
2026-04-23 17:19 32.81756 -116.99254 19867 ft 404 kts 40°
2026-04-23 17:19 32.83752 -116.96872 20464 ft 408 kts 40°
2026-04-23 17:19 32.85764 -116.94467 21052 ft 412 kts 40°
2026-04-23 17:19 32.87796 -116.92037 21622 ft 416 kts 41°
2026-04-23 17:20 32.89850 -116.89579 22182 ft 421 kts 41°
2026-04-23 17:20 32.94017 -116.84585 23263 ft 430 kts 40°
2026-04-23 17:21 32.98276 -116.79477 24199 ft 438 kts 41°
2026-04-23 17:21 33.00432 -116.76887 24617 ft 443 kts 41°
2026-04-23 17:21 33.04812 -116.71621 25429 ft 452 kts 41°
2026-04-23 17:22 33.07030 -116.68951 25850 ft 455 kts 41°
2026-04-23 17:22 33.11532 -116.63527 26639 ft 464 kts 41°
2026-04-23 17:23 33.16115 -116.57995 27396 ft 473 kts 41°
2026-04-23 17:23 33.18432 -116.55195 27760 ft 477 kts 41°
2026-04-23 17:23 33.23144 -116.49495 28429 ft 486 kts 41°
2026-04-23 17:24 33.25528 -116.46605 28819 ft 489 kts 41°
2026-04-23 17:24 33.27925 -116.43699 29160 ft 493 kts 42°
2026-04-23 17:24 33.32737 -116.37858 29822 ft 500 kts 41°
2026-04-23 17:25 33.37656 -116.31877 30383 ft 508 kts 41°
2026-04-23 17:25 33.40139 -116.28853 30693 ft 510 kts 41°
2026-04-23 17:26 33.45131 -116.22766 31313 ft 514 kts 41°
2026-04-23 17:26 33.50167 -116.16616 31783 ft 520 kts 41°
2026-04-23 17:27 33.55250 -116.10395 32333 ft 524 kts 41°
2026-04-23 17:27 33.57797 -116.07274 32589 ft 526 kts 41°
2026-04-23 17:27 33.60357 -116.04135 32913 ft 526 kts 41°
2026-04-23 17:27 33.62936 -116.01043 33334 ft 524 kts 39°
2026-04-23 17:28 33.64668 -115.99038 33619 ft 522 kts 38°
2026-04-23 17:28 33.74683 -115.87672 34804 ft 520 kts 37°
2026-04-23 17:28 33.85225 -115.75568 35719 ft 524 kts 37°
2026-04-23 17:28 33.90916 -115.68969 36200 ft 526 kts 37°
2026-04-23 17:29 33.93551 -115.65910 36415 ft 527 kts 37°
2026-04-23 17:29 34.12211 -115.44209 37503 ft 538 kts 37°
2026-04-23 17:29 34.19477 -115.36574 37136 ft 515 kts 21°
2026-04-23 17:30 34.22583 -115.34615 37047 ft 492 kts 14°
2026-04-23 17:30 34.28941 -115.32451 37025 ft 469 kts 357°
2026-04-23 17:30 34.32185 -115.31852 37023 ft 474 kts 357°
2026-04-23 17:31 34.38715 -115.30666 37014 ft 480 kts 358°
2026-04-23 17:31 34.45332 -115.29390 37004 ft 482 kts 358°
2026-04-23 17:32 34.51954 -115.28066 37027 ft 482 kts 359°
2026-04-23 17:32 34.58570 -115.26731 36994 ft 481 kts 359°
2026-04-23 17:33 34.65163 -115.25401 36987 ft 479 kts 359°
2026-04-23 17:33 34.71730 -115.24078 36995 ft 477 kts 359°
2026-04-23 17:34 34.78265 -115.22762 37010 ft 475 kts 359°
2026-04-23 17:35 34.88023 -115.20792 37006 ft 472 kts 359°
2026-04-23 17:35 34.97711 -115.18831 37027 ft 470 kts 359°
2026-04-23 17:36 35.04118 -115.17533 37036 ft 469 kts 360°
2026-04-23 17:36 35.10555 -115.16226 37049 ft 468 kts 360°
2026-04-23 17:37 35.16981 -115.14918 37042 ft 468 kts 360°
2026-04-23 17:38 35.26629 -115.12952 37048 ft 469 kts
2026-04-23 17:38 35.33074 -115.11635 37059 ft 469 kts
2026-04-23 17:39 35.39518 -115.10315 37057 ft 470 kts
2026-04-23 17:39 35.45964 -115.08988 37057 ft 471 kts
2026-04-23 17:39 35.49150 -115.07839 37084 ft 486 kts 15°
2026-04-23 17:40 35.52147 -115.05803 37078 ft 500 kts 29°
2026-04-23 17:40 35.54753 -115.02991 37071 ft 512 kts 41°
2026-04-23 17:40 35.57114 -114.99709 37072 ft 513 kts 44°
2026-04-23 17:41 35.61752 -114.93039 37065 ft 512 kts 43°
2026-04-23 17:41 35.68865 -114.83258 37053 ft 511 kts 42°
2026-04-23 17:42 35.75999 -114.73501 37014 ft 511 kts 42°
2026-04-23 17:43 35.80740 -114.66990 37035 ft 510 kts 42°
2026-04-23 17:43 35.85473 -114.60475 36972 ft 510 kts 42°
2026-04-23 17:44 35.90208 -114.53947 36995 ft 511 kts 42°
2026-04-23 17:44 35.97301 -114.44142 36985 ft 511 kts 42°
2026-04-23 17:45 36.04396 -114.34306 36970 ft 512 kts 42°
2026-04-23 17:46 36.12501 -114.26268 36976 ft 487 kts 16°
2026-04-23 17:46 36.18678 -114.22941 36981 ft 483 kts 14°
2026-04-23 17:47 36.24836 -114.19693 36982 ft 485 kts 14°
2026-04-23 17:48 36.34134 -114.14679 36978 ft 486 kts 14°
2026-04-23 17:48 36.40334 -114.11292 36983 ft 487 kts 14°
2026-04-23 17:49 36.46537 -114.07897 36986 ft 487 kts 14°
2026-04-23 17:49 36.52741 -114.04497 36990 ft 489 kts 14°
2026-04-23 17:50 36.58960 -114.01084 36988 ft 488 kts 14°
2026-04-23 17:50 36.68279 -113.95959 36999 ft 488 kts 14°
2026-04-23 17:51 36.74490 -113.92535 37000 ft 488 kts 14°
2026-04-23 17:52 36.83799 -113.87394 36995 ft 488 kts 14°
2026-04-23 17:52 36.93121 -113.82232 37027 ft 488 kts 13°
2026-04-23 17:53 37.02428 -113.77061 37045 ft 487 kts 14°
2026-04-23 17:54 37.08609 -113.73620 37061 ft 486 kts 13°
2026-04-23 17:54 37.17872 -113.68454 37048 ft 486 kts 13°
2026-04-23 17:55 37.27113 -113.63284 37005 ft 484 kts 13°
2026-04-23 17:56 37.33218 -113.59862 37022 ft 484 kts 13°
2026-04-23 17:56 37.42459 -113.54673 37033 ft 486 kts 13°
2026-04-23 17:57 37.48630 -113.51198 37024 ft 486 kts 13°
2026-04-23 17:58 37.57901 -113.45964 37023 ft 486 kts 14°
2026-04-23 17:58 37.64074 -113.42471 37127 ft 487 kts 14°
2026-04-23 17:59 37.70268 -113.38963 37078 ft 488 kts 14°
2026-04-23 17:59 37.76462 -113.35445 37076 ft 488 kts 14°
2026-04-23 18:00 37.82653 -113.31922 37075 ft 487 kts 14°
2026-04-23 18:00 37.88839 -113.28396 37114 ft 487 kts 14°
2026-04-23 18:01 37.94978 -113.24892 37072 ft 487 kts 14°
2026-04-23 18:01 38.01187 -113.21340 37013 ft 486 kts 14°
2026-04-23 18:02 38.06310 -113.18404 37022 ft 486 kts 14°
2026-04-23 18:02 38.13470 -113.14295 37063 ft 486 kts 15°
2026-04-23 18:03 38.19625 -113.10754 37060 ft 485 kts 15°
2026-04-23 18:03 38.25766 -113.07214 37088 ft 484 kts 15°
2026-04-23 18:04 38.31902 -113.03671 37101 ft 484 kts 15°
2026-04-23 18:04 38.38030 -113.00152 37108 ft 481 kts 14°
2026-04-23 18:05 38.44189 -112.96874 37106 ft 477 kts 12°
2026-04-23 18:05 38.50251 -112.93695 36660 ft 466 kts 12°
2026-04-23 18:05 38.53258 -112.92111 36148 ft 465 kts 12°
2026-04-23 18:06 38.56253 -112.90523 35586 ft 465 kts 12°
2026-04-23 18:06 38.59217 -112.88942 35182 ft 461 kts 12°
2026-04-23 18:06 38.62169 -112.87364 34778 ft 458 kts 13°
2026-04-23 18:06 38.65107 -112.85793 34330 ft 456 kts 13°
2026-04-23 18:07 38.68023 -112.84231 33860 ft 453 kts 13°
2026-04-23 18:07 38.70920 -112.82679 33399 ft 450 kts 14°
2026-04-23 18:07 38.73794 -112.81138 32978 ft 445 kts 14°
2026-04-23 18:07 38.76632 -112.79614 32597 ft 440 kts 15°
2026-04-23 18:08 38.78497 -112.78613 32319 ft 437 kts 15°
2026-04-23 18:08 38.82218 -112.76614 31816 ft 431 kts 16°
2026-04-23 18:08 38.84968 -112.75134 31459 ft 426 kts 17°
2026-04-23 18:08 38.87670 -112.73676 31215 ft 418 kts 18°
2026-04-23 18:09 38.90325 -112.72240 30951 ft 411 kts 18°
2026-04-23 18:09 38.92907 -112.70844 30663 ft 405 kts 18°
2026-04-23 18:09 38.95491 -112.69448 30303 ft 401 kts 19°
2026-04-23 18:09 38.98087 -112.68044 29910 ft 397 kts 19°
2026-04-23 18:10 39.00590 -112.66689 29514 ft 393 kts 19°
2026-04-23 18:10 39.03090 -112.65334 29130 ft 388 kts 19°
2026-04-23 18:10 39.05562 -112.63992 28755 ft 383 kts 19°
2026-04-23 18:10 39.08006 -112.62665 28372 ft 379 kts 19°
2026-04-23 18:11 39.10429 -112.61349 28003 ft 376 kts 19°
2026-04-23 18:11 39.12824 -112.60047 27623 ft 372 kts 19°
2026-04-23 18:11 39.15199 -112.58754 27256 ft 369 kts 19°
2026-04-23 18:11 39.17555 -112.57472 26892 ft 366 kts 19°
2026-04-23 18:12 39.19885 -112.56203 26527 ft 363 kts 19°
2026-04-23 18:12 39.22201 -112.54940 26165 ft 360 kts 19°
2026-04-23 18:12 39.24493 -112.53689 25811 ft 357 kts 19°
2026-04-23 18:12 39.26773 -112.52444 25463 ft 354 kts 19°
2026-04-23 18:13 39.29035 -112.51208 25112 ft 352 kts 19°
2026-04-23 18:13 39.31276 -112.49973 24856 ft 346 kts 19°
2026-04-23 18:13 39.33454 -112.48732 24636 ft 341 kts 19°
2026-04-23 18:13 39.35618 -112.47487 24321 ft 339 kts 19°
2026-04-23 18:14 39.37041 -112.46667 24094 ft 338 kts 19°
2026-04-23 18:14 39.39898 -112.45022 23671 ft 335 kts 19°
2026-04-23 18:14 39.42027 -112.43797 23274 ft 334 kts 19°
2026-04-23 18:14 39.44148 -112.42577 22900 ft 332 kts 19°
2026-04-23 18:15 39.46251 -112.41367 22541 ft 330 kts 19°
2026-04-23 18:15 39.47636 -112.40570 22317 ft 328 kts 19°
2026-04-23 18:15 39.49712 -112.39375 21980 ft 325 kts 19°
2026-04-23 18:15 39.51769 -112.38190 21642 ft 322 kts 19°
2026-04-23 18:16 39.53813 -112.37012 21303 ft 320 kts 19°
2026-04-23 18:16 39.55839 -112.35844 20978 ft 318 kts 19°
2026-04-23 18:16 39.57855 -112.34682 20660 ft 316 kts 20°
2026-04-23 18:17 39.61839 -112.32381 20013 ft 311 kts 20°
2026-04-23 18:17 39.63804 -112.31246 19756 ft 307 kts 20°
2026-04-23 18:17 39.65755 -112.30118 19441 ft 306 kts 20°
2026-04-23 18:17 39.67690 -112.28999 19127 ft 304 kts 20°
2026-04-23 18:18 39.69618 -112.27884 18807 ft 302 kts 20°
2026-04-23 18:18 39.71534 -112.26774 18493 ft 301 kts 21°
2026-04-23 18:18 39.73438 -112.25670 18147 ft 299 kts 21°
2026-04-23 18:18 39.75314 -112.24583 17799 ft 297 kts 21°
2026-04-23 18:19 39.77217 -112.23478 17468 ft 294 kts 21°
2026-04-23 18:19 39.79062 -112.22407 17076 ft 295 kts 21°
2026-04-23 18:19 39.80927 -112.21323 16744 ft 293 kts 21°
2026-04-23 18:19 39.82781 -112.20245 16423 ft 291 kts 21°
2026-04-23 18:20 39.84621 -112.19175 16104 ft 289 kts 21°
2026-04-23 18:20 39.86448 -112.18111 15792 ft 287 kts 20°
2026-04-23 18:20 39.88261 -112.17055 15487 ft 285 kts 20°
2026-04-23 18:20 39.90068 -112.16002 15170 ft 283 kts 20°
2026-04-23 18:21 39.91864 -112.14955 14859 ft 282 kts 20°
2026-04-23 18:21 39.93651 -112.13913 14548 ft 281 kts 20°
2026-04-23 18:21 39.95436 -112.12872 14249 ft 281 kts 20°
2026-04-23 18:21 39.97223 -112.11842 13956 ft 278 kts 18°
2026-04-23 18:22 39.99025 -112.11028 13826 ft 273 kts 13°
2026-04-23 18:22 40.00880 -112.10302 13677 ft 284 kts 12°
2026-04-23 18:22 40.02801 -112.09569 13524 ft 291 kts 12°
2026-04-23 18:22 40.04758 -112.08815 13376 ft 293 kts 13°
2026-04-23 18:23 40.06706 -112.08055 13224 ft 291 kts 13°
2026-04-23 18:23 40.10552 -112.06536 12962 ft 287 kts 13°
2026-04-23 18:24 40.14356 -112.05023 12708 ft 285 kts 14°
2026-04-23 18:24 40.16257 -112.04265 12568 ft 285 kts 14°
2026-04-23 18:24 40.18154 -112.03507 12445 ft 286 kts 14°
2026-04-23 18:25 40.21948 -112.01989 12179 ft 288 kts 14°
2026-04-23 18:25 40.23869 -112.01220 12054 ft 289 kts 14°
2026-04-23 18:25 40.25789 -112.00450 11915 ft 289 kts 14°
2026-04-23 18:25 40.27702 -111.99682 11778 ft 286 kts 14°
2026-04-23 18:26 40.29597 -111.98920 11648 ft 284 kts 13°
2026-04-23 18:26 40.31484 -111.98162 11504 ft 284 kts 14°
2026-04-23 18:26 40.33380 -111.97400 11375 ft 285 kts 14°
2026-04-23 18:26 40.35271 -111.96640 11229 ft 281 kts 14°
2026-04-23 18:27 40.37113 -111.95897 11078 ft 273 kts 14°
2026-04-23 18:27 40.38905 -111.95175 10941 ft 266 kts 13°
2026-04-23 18:27 40.40669 -111.94904 10968 ft 249 kts 352°
2026-04-23 18:27 40.42385 -111.95168 10978 ft 244 kts 350°
2026-04-23 18:28 40.44007 -111.95464 10966 ft 226 kts 349°
2026-04-23 18:28 40.45506 -111.95759 10947 ft 210 kts 348°
2026-04-23 18:28 40.46895 -111.96053 10958 ft 203 kts 347°
2026-04-23 18:28 40.48352 -111.96406 10989 ft 222 kts 345°
2026-04-23 18:29 40.49896 -111.96776 10981 ft 227 kts 347°
2026-04-23 18:29 40.51473 -111.96861 10819 ft 229 kts 358°
2026-04-23 18:29 40.53028 -111.96730 10750 ft 217 kts 358°
2026-04-23 18:29 40.54473 -111.96801 10658 ft 201 kts 351°
2026-04-23 18:30 40.55844 -111.96974 10383 ft 198 kts 351°
2026-04-23 18:30 40.57226 -111.97155 10050 ft 197 kts 349°
2026-04-23 18:30 40.58538 -111.97319 9904 ft 184 kts 349°
2026-04-23 18:30 40.59811 -111.97478 9433 ft 185 kts 349°
2026-04-23 18:31 40.61089 -111.97633 9048 ft 183 kts 348°
2026-04-23 18:31 40.62355 -111.97784 8626 ft 183 kts 351°
2026-04-23 18:31 40.63628 -111.97922 8223 ft 183 kts 351°
2026-04-23 18:31 40.64892 -111.98057 7863 ft 181 kts 351°
2026-04-23 18:32 40.66142 -111.98202 7470 ft 180 kts 352°
2026-04-23 18:32 40.67379 -111.98348 6976 ft 178 kts 352°
2026-04-23 18:32 40.68619 -111.98494 6436 ft 180 kts 352°
2026-04-23 18:32 40.69862 -111.98641 6034 ft 177 kts 352°
2026-04-23 18:33 40.71082 -111.98785 5661 ft 175 kts 351°
2026-04-23 18:33 40.72239 -111.98920 5391 ft 159 kts 352°
2026-04-23 18:33 40.73292 -111.99045 5144 ft 148 kts 352°
2026-04-23 18:33 40.74296 -111.99165 4944 ft 144 kts 350°
2026-04-23 18:34 40.75290 -111.99284 4781 ft 149 kts 351°
2026-04-23 18:34 40.76318 -111.99401 4598 ft 145 kts 352°
2026-04-23 18:34 40.77300 -111.99526 4378 ft 137 kts 352°
2026-04-23 18:34 40.78215 -111.99624 4236 ft 125 kts 351°
2026-04-23 18:35 40.78964 -111.99730 4233 ft 87 kts 356°
2026-04-23 18:35 40.79412 -111.99730 4229 ft 43 kts 19°
2026-04-23 18:35 40.79531 -111.99525 4230 ft 29 kts 108°
2026-04-23 18:35 40.79357 -111.99454 4230 ft 27 kts 176°